Tracking 28790 objects as of 19-Apr-2024
HD Live streaming from Space Station
objects crossing your sky now

THORAD DELTA 1 DEB

Track THORAD DELTA 1 DEB now!
10-day predictions


NORAD ID: 8789
Int'l Code: 1974-089DR
Perigee: 1,435.2 km
Apogee: 1,601.3 km
Inclination: 102.0 °
Period: 116.2 minutes
Semi major axis: 7889 km
RCS: 0.0362 m2 (small)
Launch date: November 15, 1974
Source: United States (US)
Launch site: AIR FORCE WESTERN TEST RANGE (AFWTR)

Note: This is SATELLITE DEBRIS
Your satellite tracking list
Your tracking list is empty




NASA's NSSDC Master Catalog

Two Line Element Set (TLE):
1 08789U 74089DR  24109.80950797 -.00000013  00000-0  23798-3 0  9998
2 08789 102.0468  57.3613 0105298 269.3985 149.7116 12.38943876234680
Source of the keplerian elements: AFSPC